TimeCST,TemperatureF,Dew PointF,Humidity,Sea Level PressureIn,VisibilityMPH,Wind Direction,Wind SpeedMPH,Gust SpeedMPH,PrecipitationIn,Events,Conditions,WindDirDegrees,DateUTC
12:15 AM,42.8,37.4,81,29.94,7.0,East,13.8,20.7,N/A,,Overcast,100,2012-11-10 06:15:00
12:35 AM,42.8,37.4,81,29.94,7.0,East,15.0,20.7,N/A,,Overcast,100,2012-11-10 06:35:00
12:55 AM,42.8,37.4,81,29.93,7.0,East,17.3,20.7,N/A,,Overcast,100,2012-11-10 06:55:00
1:15 AM,42.8,37.4,81,29.92,7.0,East,16.1,23.0,N/A,,Overcast,100,2012-11-10 07:15:00
1:35 AM,42.8,37.4,81,29.91,7.0,East,17.3,25.3,N/A,,Overcast,100,2012-11-10 07:35:00
1:55 AM,42.8,37.4,81,29.91,5.0,East,15.0,20.7,N/A,,Haze,100,2012-11-10 07:55:00
2:15 AM,42.8,37.4,81,29.90,5.0,ESE,15.0,20.7,N/A,,Overcast,110,2012-11-10 08:15:00
2:35 AM,42.8,39.2,87,29.89,5.0,East,15.0,20.7,N/A,,Overcast,100,2012-11-10 08:35:00
2:55 AM,42.8,39.2,87,29.89,5.0,East,13.8,-,N/A,,Overcast,100,2012-11-10 08:55:00
3:15 AM,42.8,41.0,93,29.88,5.0,East,15.0,23.0,N/A,,Overcast,100,2012-11-10 09:15:00
4:15 AM,41.0,41.0,100,29.84,5.0,East,15.0,24.2,N/A,,Overcast,100,2012-11-10 10:15:00
4:35 AM,41.0,41.0,100,29.84,5.0,ESE,12.7,24.2,N/A,Rain,Rain,110,2012-11-10 10:35:00
4:55 AM,41.0,41.0,100,29.82,4.0,ESE,16.1,20.7,0.02,Rain,Light Rain,110,2012-11-10 10:55:00
5:15 AM,41.0,41.0,100,29.82,2.5,ESE,15.0,27.6,0.10,,Overcast,110,2012-11-10 11:15:00
6:35 AM,41.0,41.0,100,29.79,4.0,East,16.1,20.7,0.11,,Overcast,100,2012-11-10 12:35:00
6:55 AM,41.0,41.0,100,29.78,4.0,ESE,13.8,23.0,0.12,,Drizzle,110,2012-11-10 12:55:00
7:15 AM,41.0,41.0,100,29.78,4.0,ESE,12.7,21.9,N/A,,Overcast,110,2012-11-10 13:15:00
7:35 AM,41.0,41.0,100,29.78,3.0,ESE,13.8,20.7,N/A,,Overcast,110,2012-11-10 13:35:00
7:55 AM,41.0,41.0,100,29.77,3.0,ESE,12.7,23.0,N/A,,Overcast,110,2012-11-10 13:55:00
8:15 AM,41.0,41.0,100,29.76,3.0,ESE,12.7,18.4,N/A,,Overcast,120,2012-11-10 14:15:00
8:35 AM,42.8,41.0,93,29.75,2.0,ESE,12.7,21.9,N/A,,Overcast,120,2012-11-10 14:35:00
8:55 AM,42.8,42.8,100,29.74,1.8,ESE,15.0,21.9,N/A,,Overcast,120,2012-11-10 14:55:00
9:15 AM,42.8,42.8,100,29.72,1.8,SE,15.0,24.2,N/A,,Overcast,130,2012-11-10 15:15:00
9:35 AM,42.8,42.8,100,29.72,1.5,ESE,13.8,26.5,N/A,,Overcast,120,2012-11-10 15:35:00
9:55 AM,42.8,42.8,100,29.71,1.5,SE,13.8,21.9,N/A,,Overcast,130,2012-11-10 15:55:00
10:15 AM,42.8,42.8,100,29.70,1.5,SE,16.1,20.7,N/A,,Overcast,130,2012-11-10 16:15:00
10:35 AM,44.6,44.6,100,29.68,1.5,ESE,10.4,20.7,N/A,,Overcast,120,2012-11-10 16:35:00
10:55 AM,44.6,44.6,100,29.67,1.5,ESE,11.5,20.7,N/A,,Overcast,120,2012-11-10 16:55:00
11:15 AM,44.6,44.6,100,29.66,1.5,SE,13.8,21.9,N/A,,Overcast,130,2012-11-10 17:15:00
11:35 AM,46.4,44.6,93,29.65,1.8,SE,16.1,25.3,N/A,,Overcast,130,2012-11-10 17:35:00
11:55 AM,46.4,44.6,93,29.64,1.8,SE,13.8,18.4,N/A,,Overcast,130,2012-11-10 17:55:00
12:15 PM,46.4,46.4,100,29.63,1.8,SE,11.5,17.3,N/A,,Overcast,130,2012-11-10 18:15:00
12:35 PM,48.2,46.4,93,29.62,2.0,SE,9.2,-,N/A,,Overcast,130,2012-11-10 18:35:00
12:55 PM,50.0,46.4,87,29.61,2.0,SE,11.5,-,N/A,,Overcast,130,2012-11-10 18:55:00
1:15 PM,50.0,48.2,94,29.60,2.0,SE,8.1,-,N/A,,Overcast,130,2012-11-10 19:15:00
1:35 PM,51.8,50.0,94,29.59,2.5,ESE,9.2,-,N/A,,Overcast,120,2012-11-10 19:35:00
1:55 PM,53.6,50.0,88,29.59,4.0,SE,12.7,20.7,N/A,,Scattered Clouds,140,2012-11-10 19:55:00
2:15 PM,53.6,50.0,88,29.58,4.0,SE,9.2,17.3,N/A,,Clear,130,2012-11-10 20:15:00
2:35 PM,55.4,51.8,88,29.57,4.0,SE,10.4,17.3,N/A,,Clear,130,2012-11-10 20:35:00
2:55 PM,55.4,51.8,88,29.57,5.0,SE,10.4,18.4,N/A,,Haze,130,2012-11-10 20:55:00
3:15 PM,55.4,51.8,88,29.57,5.0,ESE,9.2,-,N/A,,Haze,120,2012-11-10 21:15:00
3:35 PM,57.2,51.8,82,29.56,5.0,SE,10.4,-,N/A,,Haze,130,2012-11-10 21:35:00
3:55 PM,55.4,51.8,88,29.56,5.0,ESE,9.2,-,N/A,,Clear,120,2012-11-10 21:55:00
4:15 PM,55.4,51.8,88,29.55,5.0,ESE,10.4,-,N/A,,Clear,110,2012-11-10 22:15:00
4:35 PM,55.4,51.8,88,29.55,5.0,ESE,9.2,-,N/A,,Clear,110,2012-11-10 22:35:00
4:55 PM,55.4,51.8,88,29.55,7.0,ESE,9.2,-,N/A,,Clear,110,2012-11-10 22:55:00
5:15 PM,55.4,51.8,88,29.55,7.0,ESE,8.1,-,N/A,,Clear,120,2012-11-10 23:15:00
5:35 PM,55.4,51.8,88,29.55,10.0,ESE,9.2,16.1,N/A,,Clear,120,2012-11-10 23:35:00
5:55 PM,55.4,51.8,88,29.54,7.0,ESE,10.4,16.1,N/A,,Clear,120,2012-11-10 23:55:00
6:15 PM,55.4,51.8,88,29.55,10.0,ESE,8.1,-,N/A,,Clear,120,2012-11-11 00:15:00
6:35 PM,55.4,51.8,88,29.55,10.0,ESE,6.9,-,N/A,,Clear,120,2012-11-11 00:35:00
6:55 PM,55.4,51.8,88,29.55,10.0,SE,9.2,-,N/A,,Clear,130,2012-11-11 00:55:00
7:15 PM,57.2,53.6,88,29.55,10.0,SE,11.5,-,N/A,,Clear,140,2012-11-11 01:15:00
7:35 PM,57.2,53.6,88,29.54,10.0,SE,9.2,-,N/A,,Scattered Clouds,140,2012-11-11 01:35:00
7:55 PM,57.2,53.6,88,29.53,10.0,SE,10.4,16.1,N/A,,Clear,130,2012-11-11 01:55:00
8:15 PM,59.0,53.6,82,29.52,10.0,SE,9.2,-,N/A,,Mostly Cloudy,130,2012-11-11 02:15:00
8:35 PM,59.0,53.6,82,29.51,10.0,SE,9.2,-,N/A,,Overcast,130,2012-11-11 02:35:00
8:55 PM,60.8,55.4,82,29.50,10.0,SSE,11.5,-,N/A,,Overcast,150,2012-11-11 02:55:00
9:35 PM,62.6,55.4,77,29.51,10.0,SSE,13.8,19.6,N/A,,Overcast,160,2012-11-11 03:35:00
10:15 PM,62.6,55.4,77,29.50,10.0,South,19.6,27.6,N/A,,Overcast,180,2012-11-11 04:15:00
10:35 PM,64.4,55.4,73,29.50,10.0,South,16.1,26.5,N/A,,Overcast,180,2012-11-11 04:35:00
10:55 PM,64.4,55.4,73,29.50,10.0,South,17.3,26.5,N/A,,Overcast,180,2012-11-11 04:55:00
11:15 PM,62.6,53.6,72,29.50,10.0,South,16.1,23.0,N/A,,Mostly Cloudy,180,2012-11-11 05:15:00
11:35 PM,64.4,53.6,68,29.50,10.0,South,17.3,26.5,N/A,,Mostly Cloudy,180,2012-11-11 05:35:00
11:55 PM,64.4,53.6,68,29.55,10.0,WSW,28.8,34.5,N/A,Rain,Light Rain,250,2012-11-11 05:55:00